| time (UTC) | temp F | wind direction | speed knots | gust knots | rain 1hr in | rain 24hr in | rain mn in | humidity % | barometer mb |
| 20260905170631 | 70 | 308 | 0.9 | 7.8 | 0.00 | 0.02 | 0.01 | 71 | 1010.9 |
| 20260905165826 | 69 | 306 | 0.0 | 2.6 | 0.00 | 0.02 | 0.01 | 70 | 1011.0 |
| 20260905164320 | 70 | 306 | 0.0 | 2.6 | 0.00 | 0.02 | 0.01 | 69 | 1011.2 |
| 20260905162126 | 71 | 327 | 0.0 | 2.6 | 0.00 | 0.02 | 0.01 | 73 | 1011.1 |
| 20260905161316 | 71 | 304 | 0.0 | 0.9 | 0.00 | 0.02 | 0.01 | 70 | 1011.2 |
| 20260905155125 | 71 | 287 | 0.0 | 3.5 | 0.01 | 0.02 | 0.01 | 70 | 1011.2 |
| 20260905153623 | 70 | 313 | 0.0 | 3.5 | 0.01 | 0.02 | 0.01 | 70 | 1011.4 |
| 20260905152824 | 71 | 5 | 0.0 | 0.0 | 0.01 | 0.02 | 0.01 | 73 | 1011.2 |
| 20260905150623 | 70 | 319 | 0.0 | 0.9 | 0.01 | 0.02 | 0.01 | 77 | 1011.1 |
| 20260905145120 | 71 | 311 | 0.0 | 0.9 | 0.00 | 0.01 | 0.00 | 75 | 1011.0 |
| 20260905143620 | 69 | 46 | 0.0 | 4.3 | 0.00 | 0.01 | 0.00 | 77 | 1011.1 |
| 20260905142118 | 67 | 347 | 0.0 | 0.0 | 0.00 | 0.01 | 0.00 | 83 | 1011.2 |
| 20260905140619 | 67 | 300 | 0.0 | 4.3 | 0.00 | 0.01 | 0.00 | 82 | 1011.1 |
| 20260905135116 | 66 | 237 | 0.0 | 2.6 | 0.00 | 0.01 | 0.00 | 91 | 1011.1 |
| 20260905133616 | 63 | 287 | 0.0 | 4.3 | 0.00 | 0.01 | 0.00 | 95 | 1010.8 |
| 20260905132118 | 61 | 321 | 0.0 | 0.0 | 0.00 | 0.01 | 0.00 | 99 | 1010.8 |
| 20260905130616 | 61 | 311 | 0.0 | 0.0 | 0.00 | 0.01 | 0.00 | 99 | 1010.8 |
| 20260905125116 | 60 | 330 | 0.0 | 0.0 | 0.00 | 0.01 | 0.00 | 99 | 1010.8 |
| 20260905123616 | 58 | 330 | 0.0 | 0.0 | 0.00 | 0.01 | 0.00 | 99 | 1011.1 |
| 20260905122118 | 58 | 330 | 0.0 | 0.0 | 0.00 | 0.01 | 0.00 | 99 | 1011.0 |
| 20260905120614 | 57 | 330 | 0.0 | 0.0 | 0.00 | 0.01 | 0.00 | 99 | 1010.9 |
| 20260905115113 | 56 | 330 | 0.0 | 0.0 | 0.00 | 0.01 | 0.00 | 99 | 1010.8 |
| 20260905114258 | 55 | 330 | 0.0 | 0.0 | 0.00 | 0.01 | 0.00 | 99 | 1010.7 |
| 20260905112106 | 54 | 330 | 0.0 | 0.0 | 0.00 | 0.01 | 0.00 | 99 | 1010.6 |
| 20260905110605 | 53 | 330 | 0.0 | 0.0 | 0.00 | 0.01 | 0.00 | 98 | 1010.6 |
| 20260905105104 | 52 | 330 | 0.0 | 0.0 | 0.00 | 0.01 | 0.00 | 97 | 1010.5 |
| 20260905103603 | 52 | 330 | 0.0 | 0.0 | 0.00 | 0.01 | 0.00 | 97 | 1010.2 |
| 20260905102103 | 53 | 330 | 0.0 | 0.0 | 0.00 | 0.01 | 0.00 | 97 | 1010.0 |
| 20260905101857 | 53 | 330 | 0.0 | 0.0 | 0.00 | 0.01 | 0.00 | 97 | 1009.6 |
| 20260905101724 | 54 | 330 | 0.0 | 0.0 | 0.00 | 0.01 | 0.00 | 96 | 1009.8 |
| 20260905101549 | 54 | 330 | 0.0 | 0.0 | 0.00 | 0.01 | 0.00 | 96 | 1009.6 |
| 20260905101541 | 54 | 330 | 0.0 | 0.0 | 0.00 | 0.01 | 0.00 | 96 | 1009.6 |
| 20260905101533 | 55 | 330 | 0.0 | 0.0 | 0.00 | 0.01 | 0.00 | 96 | 1009.6 |
| 20260905101528 | 53 | 330 | 0.0 | 0.0 | 0.00 | 0.01 | 0.00 | 97 | 1009.8 |
| 20260905101337 | 53 | 330 | 0.0 | 0.0 | 0.00 | 0.01 | 0.00 | 97 | 1009.8 |
| 20260905101327 | 53 | 330 | 0.0 | 0.0 | 0.00 | 0.01 | 0.00 | 97 | 1009.7 |
| 20260905101317 | 53 | 330 | 0.0 | 0.0 | 0.00 | 0.01 | 0.00 | 97 | 1009.7 |
| 20260905101309 | 53 | 330 | 0.0 | 0.0 | 0.00 | 0.01 | 0.00 | 97 | 1009.9 |
| 20260905101138 | 54 | 330 | 0.0 | 0.0 | 0.00 | 0.01 | 0.00 | 97 | 1009.8 |
| 20260905070548 | 55 | 330 | 0.0 | 0.0 | 0.00 | 0.01 | 0.00 | 96 | 1009.7 |
| 20260905065044 | 55 | 330 | 0.0 | 0.0 | 0.00 | 0.01 | 0.00 | 96 | 1010.0 |
| 20260905063544 | 56 | 330 | 0.0 | 0.0 | 0.00 | 0.01 | 0.00 | 96 | 1009.9 |
| 20260905062040 | 56 | 330 | 0.0 | 0.0 | 0.00 | 0.01 | 0.00 | 96 | 1010.0 |
| 20260905060539 | 56 | 330 | 0.0 | 0.0 | 0.00 | 0.01 | 0.00 | 96 | 1009.9 |
| 20260905055740 | 57 | 330 | 0.0 | 0.0 | 0.00 | 0.01 | 0.00 | 96 | 1009.9 |
| 20260905055004 | 57 | 330 | 0.0 | 0.0 | 0.00 | 0.01 | 0.00 | 96 | 1009.9 |
| 20260905052035 | 57 | 330 | 0.0 | 0.0 | 0.00 | 0.01 | 0.00 | 95 | 1009.9 |
| 20260905051235 | 58 | 330 | 0.0 | 0.0 | 0.00 | 0.01 | 0.00 | 96 | 1010.0 |
| 20260905045034 | 58 | 330 | 0.0 | 0.0 | 0.00 | 0.01 | 0.00 | 96 | 1010.3 |
| 20260905043536 | 58 | 330 | 0.0 | 0.0 | 0.00 | 0.01 | 0.00 | 96 | 1010.5 |
| 20260905042035 | 58 | 330 | 0.0 | 0.0 | 0.00 | 0.01 | 0.00 | 95 | 1010.5 |
| 20260905040535 | 59 | 330 | 0.0 | 0.0 | 0.00 | 0.01 | 0.00 | 95 | 1010.6 |
| 20260905035034 | 59 | 330 | 0.0 | 0.0 | 0.00 | 0.01 | 0.01 | 95 | 1010.4 |
| 20260905033528 | 59 | 330 | 0.0 | 0.0 | 0.00 | 0.01 | 0.01 | 94 | 1010.3 |
| 20260905032027 | 60 | 330 | 0.0 | 0.0 | 0.00 | 0.01 | 0.01 | 94 | 1010.4 |
| 20260905030526 | 60 | 330 | 0.0 | 0.0 | 0.00 | 0.01 | 0.01 | 94 | 1010.4 |
| 20260905025027 | 61 | 330 | 0.0 | 0.0 | 0.00 | 0.01 | 0.01 | 94 | 1010.5 |
| 20260905023528 | 61 | 330 | 0.0 | 0.0 | 0.00 | 0.01 | 0.01 | 94 | 1010.6 |
| 20260905022029 | 62 | 330 | 0.0 | 0.0 | 0.00 | 0.01 | 0.01 | 94 | 1010.7 |
| 20260905020528 | 62 | 330 | 0.0 | 0.0 | 0.00 | 0.01 | 0.01 | 94 | 1010.9 |
| 20260905015028 | 62 | 330 | 0.0 | 0.0 | 0.00 | 0.01 | 0.01 | 93 | 1010.9 |
| 20260905013528 | 63 | 330 | 0.0 | 0.0 | 0.00 | 0.01 | 0.01 | 93 | 1011.0 |
| 20260905012722 | 63 | 330 | 0.0 | 0.0 | 0.00 | 0.01 | 0.01 | 93 | 1011.0 |
| 20260905010527 | 63 | 330 | 0.0 | 0.0 | 0.00 | 0.01 | 0.01 | 92 | 1010.8 |
| 20260905010415 | 64 | 330 | 0.0 | 0.0 | 0.01 | 0.01 | 0.01 | 91 | 1010.8 |
| 20260905003528 | 65 | 330 | 0.0 | 0.0 | 0.01 | 0.01 | 0.01 | 91 | 1010.9 |
| 20260905002025 | 65 | 330 | 0.0 | 6.1 | 0.01 | 0.01 | 0.01 | 89 | 1011.1 |
| 20260905000526 | 65 | 306 | 0.0 | 4.3 | 0.01 | 0.01 | 0.01 | 87 | 1010.8 |
| 20260904235716 | 66 | 350 | 0.0 | 0.0 | 0.00 | 0.00 | 0.00 | 88 | 1010.2 |
| 20260904233526 | 66 | 350 | 0.0 | 0.9 | 0.00 | 0.00 | 0.00 | 86 | 1010.1 |
| 20260904232026 | 67 | 350 | 0.0 | 0.0 | 0.00 | 0.00 | 0.00 | 85 | 1010.2 |
| 20260904230525 | 68 | 350 | 0.0 | 0.9 | 0.00 | 0.00 | 0.00 | 83 | 1010.0 |
| 20260904225026 | 69 | 350 | 0.0 | 0.0 | 0.00 | 0.00 | 0.00 | 82 | 1010.1 |
| 20260904223525 | 70 | 350 | 0.0 | 0.0 | 0.00 | 0.00 | 0.00 | 81 | 1010.1 |
| 20260904222714 | 71 | 350 | 0.0 | 0.0 | 0.00 | 0.00 | 0.00 | 79 | 1010.0 |
| 20260904221910 | 71 | 350 | 0.0 | 0.0 | 0.00 | 0.00 | 0.00 | 76 | 1010.0 |
| 20260904215023 | 72 | 350 | 0.0 | 0.0 | 0.00 | 0.00 | 0.00 | 76 | 1010.0 |
| 20260904214926 | 72 | 351 | 0.0 | 0.9 | 0.00 | 0.00 | 0.00 | 73 | 1009.9 |
| 20260904212023 | 73 | 34 | 0.0 | 0.0 | 0.00 | 0.00 | 0.00 | 73 | 1010.1 |
| 20260904210523 | 74 | 355 | 0.0 | 0.9 | 0.00 | 0.00 | 0.00 | 67 | 1010.2 |
| 20260904205024 | 74 | 286 | 0.0 | 0.9 | 0.00 | 0.00 | 0.00 | 66 | 1010.1 |
| 20260904203523 | 75 | 301 | 0.0 | 2.6 | 0.00 | 0.00 | 0.00 | 64 | 1010.1 |
| 20260904202022 | 75 | 355 | 0.0 | 2.6 | 0.00 | 0.00 | 0.00 | 63 | 1010.1 |
| 20260904201219 | 76 | 340 | 0.0 | 0.9 | 0.00 | 0.00 | 0.00 | 65 | 1010.0 |
| 20260904200422 | 76 | 315 | 0.0 | 1.7 | 0.00 | 0.00 | 0.00 | 59 | 1010.0 |
| 20260904194222 | 76 | 343 | 0.0 | 1.7 | 0.00 | 0.00 | 0.00 | 59 | 1010.0 |
| 20260904193426 | 77 | 78 | 0.0 | 3.5 | 0.00 | 0.00 | 0.00 | 59 | 1010.0 |
| 20260904190518 | 76 | 219 | 0.0 | 0.9 | 0.00 | 0.00 | 0.00 | 59 | 1010.1 |
| 20260904185017 | 76 | 333 | 0.0 | 0.9 | 0.00 | 0.00 | 0.00 | 64 | 1010.0 |
| 20260904184210 | 77 | 16 | 0.0 | 0.9 | 0.00 | 0.00 | 0.00 | 63 | 1010.2 |
| 20260904182017 | 79 | 0 | 0.0 | 4.3 | 0.00 | 0.00 | 0.00 | 56 | 1010.0 |
| 20260904180514 | 78 | 321 | 0.0 | 6.1 | 0.00 | 0.00 | 0.00 | 56 | 1010.2 |
| 20260904175015 | 80 | 5 | 0.0 | 0.0 | 0.00 | 0.00 | 0.00 | 57 | 1010.3 |
| 20260904174902 | 82 | 348 | 0.0 | 0.9 | 0.00 | 0.00 | 0.00 | 51 | 1009.9 |
| 20260904172015 | 80 | 0 | 0.0 | 0.9 | 0.00 | 0.00 | 0.00 | 57 | 1010.0 |